Location: *
(45.9500°N, 9.0833°E)
Time: 20:50:57
(UTC+00:00)

Tiros 1 despin weight - Pass Details

Date: 30 June 2021
Orbit: 593 x 642 km, 48.2° (Epoch: 05 August)

Event Time Altitude Azimuth Distance (km) Brightness Sun altitude
Rises 03:18:23 0° 266° (W) 2,849 ? -3.3°
Reaches altitude 10° 03:20:43 10° 269° (W) 1,940 ? -3.0°
Maximum altitude 03:25:08 68° 353° (N) 644 ? -2.4°
Drops below altitude 10° 03:29:32 10° 77° (ENE) 1,926 ? -1.8°
Sets 03:31:50 0° 80° (E) 2,826 ? -1.5°
